Location: Brantley
(31.5822°N, 86.2569°W)
Time: 06:29:38
(UTC+00:00)

Vanguard 2 - Pass Details

Date: 20 February 2026
Orbit: 553 x 2896 km, 32.9° (Epoch: 9 March)

Event Time Altitude Azimuth Distance (km) Brightness Sun altitude
Rises 17:15:09 0° 263° (W) 2,762 10.3 46.4°
Reaches altitude 10° 17:18:27 10° 232° (SW) 2,012 10.0 46.6°
Maximum altitude 17:20:26 13° 205° (SSW) 1,965 10.4 46.7°
Drops below altitude 10° 17:22:39 10° 180° (S) 2,316 11.0 46.8°
Sets 17:27:10 0° 153° (SSE) 3,684 11.7 47.0°
